Location: LC-39B
(28.6273°N, 80.6211°W)
Time: 13:20:26
(UTC+00:00)

ISS - Visible Passes

Search period start: 23 November 2017 00:00
Search period end: 03 December 2017 00:00
Orbit: 402 x 407 km, 51.6° (Epoch: 23 November)

Date Brightness Start Highest point End Pass type
(mag) Time Alt. Az. Time Alt. Az. Time Alt. Az.
24 Nov -1.2 00:31:08 10° SW 00:32:21 20° WSW 00:32:21 20° WSW visible
24 Nov -3.8 23:38:52 10° SSW 23:42:05 60° SE 23:42:43 47° E visible
26 Nov -1.3 00:23:51 10° W 00:25:41 18° NW 00:25:41 18° NW visible
26 Nov -2.7 23:30:48 10° WSW 23:33:53 39° NW 23:35:51 19° NNE visible
28 Nov -1.3 23:23:45 10° WNW 23:25:49 16° NW 23:27:54 10° N visible
